Regional Weather Roundup
Issued by NWS

Home | Current Version | Previous Version | Graphics & Text | Print | Product List | Glossary On
Versions: 1 2 3 4 5 6 7 8 9 10 11 12 13 14 15 16 17 18 19 20 21 22 23 24 25 26 27 28 29 30 31 32 33 34 35 36 37 38 39 40 41 42 43 44 45 46 47 48 49 50
000
ASUS43 KLMK 060110
RWRKY
KENTUCKY REGIONAL WEATHER ROUNDUP
NATIONAL WEATHER SERVICE LOUISVILLE KY
900 PM EDT SUN JUL 05 2015

NOTE "FAIR" INDICATES FEW OR NO CLOUDS BELOW 12,000 FEET
WITH NO SIGNIFICANT WEATHER AND/OR OBSTRUCTIONS TO VISIBILITY.

KYZ001>023-026-027-061>063-070>075-060200-
WESTERN AND SOUTH CENTRAL KENTUCKY

CITY           SKY/WX    TMP DP  RH WIND       PRES   REMARKS
PADUCAH        CLEAR     77  69  76 S3        30.03R HAZE
HENDERSON      CLOUDY    81  70  69 E3        30.01S
OWENSBORO      PTCLDY    80  70  71 SE5       30.04R
HOPKINSVILLE   CLEAR     78  68  69 W5        30.05R
BOWLING GREEN  PTCLDY    78  69  73 NE7       30.04S
GLASGOW        CLEAR     74  68  81 CALM      30.04S
$$

KYZ024-025-028>034-038-045-046-053-060200-
NORTH CENTRAL KENTUCKY

CITY           SKY/WX    TMP DP  RH WIND       PRES   REMARKS
LOUISVILLE/SDF PTCLDY    78  63  59 E5        30.05R
LOUISVILLE/LOU PTCLDY    77  63  61 CALM      30.06R
FORT KNOX      MOCLDY    72  68  88 NE3       30.04S
$$

KYZ035>037-039>044-047>052-055>060-089>105-060200-
NORTHEAST KENTUCKY

CITY           SKY/WX    TMP DP  RH WIND       PRES   REMARKS
LEXINGTON      CLEAR     72  64  76 NE6       30.07S
COVINGTON      MOCLDY    74  60  61 N6        30.08R
FRANKFORT      PTCLDY    73  63  70 N3        30.05F
$$

KYZ054-064>069-076>088-106>120-060200-
SOUTHEAST KENTUCKY

CITY           SKY/WX    TMP DP  RH WIND       PRES   REMARKS
JACKSON        CLOUDY    69  67  93 NW5       30.07S
LONDON         PTCLDY    72  64  76 N5        30.07F
SOMERSET       CLEAR     70  70 100 CALM      30.07S
MIDDLESBORO    CLOUDY    70  67  89 CALM      30.07S
MONTICELLO     MOCLDY    72  72 100 CALM      30.08F
$$



USA.gov is the U.S. government's official web portal to all federal, state and local government web resources and services.